TimeMDT,TemperatureF,Dew PointF,Humidity,Sea Level PressureIn,VisibilityMPH,Wind Direction,Wind SpeedMPH,Gust SpeedMPH,PrecipitationIn,Events,Conditions,WindDirDegrees,DateUTC
12:53 AM,36.0,17.1,46,30.03,10.0,WSW,8.1,-,N/A,,Clear,240,2011-10-27 06:53:00
1:53 AM,39.2,17.6,42,29.96,10.0,SW,9.2,-,N/A,,Clear,230,2011-10-27 07:53:00
2:53 AM,37.0,17.1,44,30.04,10.0,SW,10.4,-,N/A,,Clear,220,2011-10-27 08:53:00
3:53 AM,33.1,17.1,52,30.06,10.0,West,5.8,-,N/A,,Scattered Clouds,280,2011-10-27 09:53:00
4:53 AM,37.0,15.1,41,30.04,10.0,SW,12.7,-,N/A,,Overcast,230,2011-10-27 10:53:00
5:53 AM,34.0,17.1,50,30.08,10.0,WSW,10.4,-,N/A,,Mostly Cloudy,240,2011-10-27 11:53:00
6:53 AM,32.0,17.1,54,30.10,10.0,WSW,5.8,-,N/A,,Overcast,250,2011-10-27 12:53:00
7:53 AM,32.0,18.0,56,30.11,10.0,WSW,4.6,-,N/A,,Mostly Cloudy,240,2011-10-27 13:53:00
8:53 AM,34.0,19.9,56,30.12,10.0,WSW,10.4,-,N/A,,Scattered Clouds,240,2011-10-27 14:53:00
9:53 AM,39.9,21.9,49,30.11,10.0,SSW,11.5,-,N/A,,Clear,200,2011-10-27 15:53:00
10:53 AM,45.0,23.0,42,30.10,10.0,WSW,13.8,-,N/A,,Clear,240,2011-10-27 16:53:00
11:53 AM,46.9,18.0,32,30.11,10.0,West,21.9,29.9,N/A,,Scattered Clouds,260,2011-10-27 17:53:00
12:53 PM,46.9,15.1,28,30.12,10.0,West,20.7,29.9,N/A,,Scattered Clouds,270,2011-10-27 18:53:00
1:53 PM,50.0,16.0,26,30.09,10.0,West,15.0,24.2,N/A,,Mostly Cloudy,270,2011-10-27 19:53:00
2:53 PM,46.9,14.0,27,30.10,10.0,West,15.0,-,N/A,,Clear,280,2011-10-27 20:53:00
3:53 PM,50.0,14.0,24,30.10,10.0,West,18.4,26.5,N/A,,Partly Cloudy,270,2011-10-27 21:53:00
4:53 PM,48.0,14.0,26,30.10,10.0,West,21.9,26.5,N/A,,Partly Cloudy,270,2011-10-27 22:53:00
5:53 PM,43.0,16.0,34,30.15,10.0,West,11.5,-,N/A,,Clear,260,2011-10-27 23:53:00
6:53 PM,39.9,16.0,38,30.20,10.0,West,12.7,-,N/A,,Clear,270,2011-10-28 00:53:00
7:53 PM,34.0,17.1,50,30.23,10.0,SW,8.1,-,N/A,,Clear,230,2011-10-28 01:53:00
8:53 PM,30.0,17.1,59,30.25,10.0,WSW,6.9,-,N/A,,Clear,240,2011-10-28 02:53:00
9:53 PM,28.0,17.1,63,30.25,10.0,SW,6.9,-,N/A,,Clear,220,2011-10-28 03:53:00
10:53 PM,28.0,17.1,63,30.26,10.0,SW,6.9,-,N/A,,Clear,230,2011-10-28 04:53:00
11:53 PM,28.9,19.0,67,30.26,10.0,SSW,9.2,-,N/A,,Clear,210,2011-10-28 05:53:00